| time (UTC) | temp F | wind direction | speed knots | gust knots | rain 1hr in | rain 24hr in | rain mn in | humidity % | barometer mb |
| 20260506080519 | 69 | 330 | 2.6 | 3.5 | 0.00 | 0.00 | 0.00 | 71 | |
| 20260506073016 | 70 | 307 | 1.7 | 3.5 | 0.00 | 0.00 | 0.00 | 69 | |
| 20260506072537 | 70 | 310 | 0.9 | 3.5 | 0.00 | 0.00 | 0.00 | 68 | |
| 20260506072017 | 70 | 291 | 1.7 | 4.3 | 0.00 | 0.00 | 0.00 | 68 | |
| 20260506071516 | 70 | 289 | 0.9 | 1.7 | 0.00 | 0.00 | 0.00 | 67 | |
| 20260506071037 | 70 | 315 | 0.9 | 4.3 | 0.00 | 0.00 | 0.00 | 67 | |
| 20260506070517 | 70 | 8 | 0.0 | 1.7 | 0.00 | 0.00 | 0.00 | 67 | |
| 20260506062018 | 70 | 306 | 0.0 | 1.7 | 0.00 | 0.00 | 0.00 | 57 | |
| 20260506061518 | 70 | 313 | 0.9 | 2.6 | 0.00 | 0.00 | 0.00 | 56 | |
| 20260506061015 | 70 | 0.0 | 0.0 | 0.00 | 0.00 | 0.00 | 55 | ||
| 20260506060518 | 71 | 135 | 0.0 | 0.0 | 0.00 | 0.00 | 0.00 | 55 | |
| 20260506051015 | 71 | 326 | 0.9 | 2.6 | 0.00 | 0.00 | 0.00 | 52 | |
| 20260506050516 | 71 | 312 | 1.7 | 4.3 | 0.00 | 0.00 | 0.00 | 51 | |
| 20260506045036 | 71 | 323 | 0.9 | 2.6 | 0.00 | 0.00 | 0.00 | 54 | |
| 20260506044516 | 70 | 318 | 1.7 | 2.6 | 0.00 | 0.00 | 0.00 | 54 | |
| 20260506044016 | 70 | 346 | 0.0 | 0.9 | 0.00 | 0.00 | 0.00 | 54 | |
| 20260506043516 | 70 | 343 | 0.0 | 0.9 | 0.00 | 0.00 | 0.00 | 54 | |
| 20260506043017 | 70 | 42 | 0.0 | 1.7 | 0.00 | 0.00 | 0.00 | 55 | |
| 20260506042516 | 70 | 228 | 0.0 | 0.9 | 0.00 | 0.00 | 0.00 | 55 | |
| 20260506042016 | 70 | 0.0 | 0.0 | 0.00 | 0.00 | 0.00 | 55 | ||
| 20260506041517 | 70 | 282 | 1.7 | 2.6 | 0.00 | 0.00 | 0.00 | 57 | |
| 20260506041017 | 70 | 320 | 0.9 | 1.7 | 0.00 | 0.00 | 0.00 | 57 | |
| 20260506040517 | 70 | 331 | 0.0 | 0.9 | 0.00 | 0.00 | 0.00 | 55 | |
| 20260506040017 | 69 | 132 | 0.0 | 0.9 | 0.00 | 0.00 | 0.00 | 55 | |
| 20260506035517 | 70 | 0.0 | 0.0 | 0.00 | 0.00 | 0.00 | 55 | ||
| 20260506035017 | 70 | 0.0 | 0.0 | 0.00 | 0.00 | 0.00 | 54 | ||
| 20260506034517 | 70 | 0.0 | 0.0 | 0.00 | 0.00 | 0.00 | 55 | ||
| 20260506034017 | 70 | 332 | 0.0 | 1.7 | 0.00 | 0.00 | 0.00 | 54 | |
| 20260506033517 | 70 | 0.0 | 0.0 | 0.00 | 0.00 | 0.00 | 53 | ||
| 20260506033017 | 70 | 251 | 0.9 | 2.6 | 0.00 | 0.00 | 0.00 | 53 | |
| 20260506032517 | 70 | 214 | 0.9 | 1.7 | 0.00 | 0.00 | 0.00 | 52 | |
| 20260506032017 | 70 | 107 | 0.9 | 2.6 | 0.00 | 0.00 | 0.00 | 52 | |
| 20260506031518 | 70 | 78 | 0.9 | 1.7 | 0.00 | 0.00 | 0.00 | 52 | |
| 20260506031018 | 70 | 0.0 | 0.0 | 0.00 | 0.00 | 0.00 | 54 | ||
| 20260506030515 | 69 | 124 | 0.0 | 1.7 | 0.00 | 0.00 | 0.00 | 55 | |
| 20260506030018 | 69 | 0.0 | 0.0 | 0.00 | 0.00 | 0.00 | 55 | ||
| 20260506025538 | 69 | 0.0 | 0.0 | 0.00 | 0.00 | 0.00 | 54 | ||
| 20260506025018 | 69 | 0.0 | 0.0 | 0.00 | 0.00 | 0.00 | 55 | ||
| 20260506024515 | 69 | 36 | 0.0 | 0.0 | 0.00 | 0.00 | 0.00 | 54 | |
| 20260506024015 | 69 | 0.0 | 0.0 | 0.00 | 0.00 | 0.00 | 55 | ||
| 20260506023515 | 69 | 0.0 | 0.0 | 0.00 | 0.00 | 0.00 | 54 | ||
| 20260506023015 | 70 | 0.0 | 0.0 | 0.00 | 0.00 | 0.00 | 54 | ||
| 20260506022516 | 70 | 0.0 | 0.0 | 0.00 | 0.00 | 0.00 | 55 | ||
| 20260506022016 | 70 | 310 | 0.9 | 1.7 | 0.00 | 0.00 | 0.00 | 53 | |
| 20260506021536 | 70 | 0.0 | 0.0 | 0.00 | 0.00 | 0.00 | 53 | ||
| 20260506021016 | 70 | 0.0 | 0.0 | 0.00 | 0.00 | 0.00 | 52 | ||
| 20260506020516 | 70 | 0.0 | 0.0 | 0.00 | 0.00 | 0.00 | 52 | ||
| 20260506020016 | 70 | 0.0 | 0.0 | 0.00 | 0.00 | 0.00 | 51 | ||
| 20260506015516 | 70 | 0.0 | 0.0 | 0.00 | 0.00 | 0.00 | 53 | ||
| 20260506015016 | 71 | 0.0 | 0.0 | 0.00 | 0.00 | 0.00 | 54 | ||
| 20260506014517 | 71 | 321 | 0.9 | 1.7 | 0.00 | 0.00 | 0.00 | 51 | |
| 20260506014016 | 71 | 0.0 | 0.0 | 0.00 | 0.00 | 0.00 | 49 | ||
| 20260506013517 | 71 | 344 | 0.9 | 2.6 | 0.00 | 0.00 | 0.00 | 52 | |
| 20260506013016 | 71 | 0.0 | 0.0 | 0.00 | 0.00 | 0.00 | 53 | ||
| 20260506012516 | 71 | 317 | 0.0 | 1.7 | 0.00 | 0.00 | 0.00 | 52 | |
| 20260506012037 | 71 | 0.0 | 0.0 | 0.00 | 0.00 | 0.00 | 53 | ||
| 20260506011537 | 71 | 329 | 0.0 | 0.9 | 0.00 | 0.00 | 0.00 | 52 | |
| 20260506011017 | 72 | 302 | 0.9 | 1.7 | 0.00 | 0.00 | 0.00 | 51 | |
| 20260506010517 | 72 | 51 | 0.0 | 0.9 | 0.00 | 0.00 | 0.00 | 50 | |
| 20260506010017 | 73 | 0.0 | 0.0 | 0.00 | 0.00 | 0.00 | 49 | ||
| 20260506005517 | 73 | 0.0 | 0.0 | 0.00 | 0.00 | 0.00 | 50 | ||
| 20260506005017 | 74 | 0.0 | 0.0 | 0.00 | 0.00 | 0.00 | 48 | ||
| 20260506004537 | 74 | 273 | 0.9 | 1.7 | 0.00 | 0.00 | 0.00 | 46 | |
| 20260506004018 | 74 | 330 | 0.0 | 1.7 | 0.00 | 0.00 | 0.00 | 48 | |
| 20260506003517 | 75 | 0.0 | 0.0 | 0.00 | 0.00 | 0.00 | 48 | ||
| 20260506003017 | 75 | 0.0 | 0.0 | 0.00 | 0.00 | 0.00 | 47 | ||
| 20260506002517 | 75 | 0.0 | 0.0 | 0.00 | 0.00 | 0.00 | 47 | ||
| 20260506002017 | 76 | 329 | 0.0 | 0.9 | 0.00 | 0.00 | 0.00 | 46 | |
| 20260506001518 | 76 | 317 | 0.9 | 2.6 | 0.00 | 0.00 | 0.00 | 44 | |
| 20260506001018 | 76 | 323 | 0.9 | 2.6 | 0.00 | 0.00 | 0.00 | 43 | |
| 20260506000518 | 76 | 316 | 1.7 | 4.3 | 0.00 | 0.00 | 0.00 | 43 | |
| 20260506000015 | 77 | 316 | 1.7 | 3.5 | 0.00 | 0.00 | 0.00 | 42 | |
| 20260505235515 | 77 | 234 | 2.6 | 4.3 | 0.00 | 0.00 | 0.00 | 43 | |
| 20260505235018 | 77 | 321 | 0.9 | 2.6 | 0.00 | 0.00 | 0.00 | 43 | |
| 20260505234516 | 77 | 312 | 0.9 | 2.6 | 0.00 | 0.00 | 0.00 | 43 | |
| 20260505234015 | 77 | 223 | 0.9 | 2.6 | 0.00 | 0.00 | 0.00 | 43 | |
| 20260505233516 | 77 | 308 | 1.7 | 3.5 | 0.00 | 0.00 | 0.00 | 42 | |
| 20260505233016 | 77 | 309 | 0.9 | 1.7 | 0.00 | 0.00 | 0.00 | 43 | |
| 20260505232516 | 77 | 314 | 2.6 | 3.5 | 0.00 | 0.00 | 0.00 | 43 | |
| 20260505232015 | 78 | 308 | 0.9 | 1.7 | 0.00 | 0.00 | 0.00 | 44 | |
| 20260505231516 | 78 | 296 | 0.9 | 2.6 | 0.00 | 0.00 | 0.00 | 45 | |
| 20260505231015 | 78 | 306 | 0.9 | 2.6 | 0.00 | 0.00 | 0.00 | 45 | |
| 20260505230516 | 78 | 296 | 0.9 | 1.7 | 0.00 | 0.00 | 0.00 | 45 | |
| 20260505230016 | 78 | 305 | 1.7 | 2.6 | 0.00 | 0.00 | 0.00 | 44 | |
| 20260505225517 | 79 | 101 | 1.7 | 3.5 | 0.00 | 0.00 | 0.00 | 42 | |
| 20260505225016 | 79 | 326 | 0.9 | 1.7 | 0.00 | 0.00 | 0.00 | 42 | |
| 20260505224537 | 79 | 315 | 2.6 | 3.5 | 0.00 | 0.00 | 0.00 | 42 | |
| 20260505224016 | 78 | 0.0 | 0.0 | 0.00 | 0.00 | 0.00 | 41 | ||
| 20260505223517 | 78 | 320 | 0.0 | 1.7 | 0.00 | 0.00 | 0.00 | 41 | |
| 20260505223017 | 79 | 308 | 1.7 | 3.5 | 0.00 | 0.00 | 0.00 | 41 | |
| 20260505222516 | 79 | 312 | 1.7 | 2.6 | 0.00 | 0.00 | 0.00 | 41 | |
| 20260505222017 | 79 | 63 | 0.9 | 2.6 | 0.00 | 0.00 | 0.00 | 41 | |
| 20260505221517 | 80 | 307 | 0.9 | 2.6 | 0.00 | 0.00 | 0.00 | 40 | |
| 20260505221017 | 80 | 304 | 2.6 | 5.2 | 0.00 | 0.00 | 0.00 | 40 | |
| 20260505220517 | 80 | 308 | 3.5 | 5.2 | 0.00 | 0.00 | 0.00 | 39 | |
| 20260505220017 | 80 | 354 | 2.6 | 4.3 | 0.00 | 0.00 | 0.00 | 40 | |
| 20260505215518 | 81 | 324 | 3.5 | 5.2 | 0.00 | 0.00 | 0.00 | 39 | |
| 20260505215017 | 81 | 295 | 4.3 | 7.0 | 0.00 | 0.00 | 0.00 | 38 | |
| 20260505214638 | 81 | 317 | 2.6 | 5.2 | 0.00 | 0.00 | 0.00 | 38 | |
| 20260505214118 | 81 | 319 | 3.5 | 7.0 | 0.00 | 0.00 | 0.00 | 37 | |
| 20260505213517 | 81 | 73 | 0.9 | 2.6 | 0.00 | 0.00 | 0.00 | 39 | |
| 20260505213018 | 81 | 294 | 3.5 | 5.2 | 0.00 | 0.00 | 0.00 | 39 | |
| 20260505212518 | 81 | 168 | 2.6 | 4.3 | 0.00 | 0.00 | 0.00 | 39 | |
| 20260505212018 | 81 | 303 | 3.5 | 7.0 | 0.00 | 0.00 | 0.00 | 40 | |
| 20260505211518 | 81 | 303 | 3.5 | 6.1 | 0.00 | 0.00 | 0.00 | 39 | |
| 20260505211038 | 81 | 325 | 3.5 | 7.0 | 0.00 | 0.00 | 0.00 | 38 | |
| 20260505210515 | 81 | 301 | 4.3 | 6.1 | 0.00 | 0.00 | 0.00 | 38 | |
| 20260505210015 | 81 | 299 | 2.6 | 5.2 | 0.00 | 0.00 | 0.00 | 38 | |
| 20260505205516 | 81 | 315 | 3.5 | 6.1 | 0.00 | 0.00 | 0.00 | 36 | |
| 20260505205016 | 81 | 303 | 4.3 | 10.4 | 0.00 | 0.00 | 0.00 | 38 | |
| 20260505204515 | 81 | 297 | 2.6 | 4.3 | 0.00 | 0.00 | 0.00 | 38 | |
| 20260505204015 | 81 | 233 | 1.7 | 5.2 | 0.00 | 0.00 | 0.00 | 39 | |
| 20260505203516 | 81 | 305 | 5.2 | 11.3 | 0.00 | 0.00 | 0.00 | 38 | |
| 20260505203016 | 81 | 25 | 2.6 | 7.8 | 0.00 | 0.00 | 0.00 | 38 | |
| 20260505202516 | 81 | 323 | 3.5 | 7.8 | 0.00 | 0.00 | 0.00 | 38 | |
| 20260505202016 | 80 | 276 | 1.7 | 2.6 | 0.00 | 0.00 | 0.00 | 39 | |
| 20260505201516 | 80 | 312 | 3.5 | 6.1 | 0.00 | 0.00 | 0.00 | 38 | |
| 20260505201016 | 81 | 9 | 3.5 | 5.2 | 0.00 | 0.00 | 0.00 | 36 | |
| 20260505200516 | 80 | 129 | 1.7 | 4.3 | 0.00 | 0.00 | 0.00 | 38 | |
| 20260505200016 | 80 | 301 | 4.3 | 7.8 | 0.00 | 0.00 | 0.00 | 37 | |
| 20260505195517 | 80 | 339 | 3.5 | 6.1 | 0.00 | 0.00 | 0.00 | 38 | |
| 20260505195017 | 80 | 299 | 4.3 | 7.8 | 0.00 | 0.00 | 0.00 | 37 | |
| 20260505194537 | 80 | 303 | 3.5 | 5.2 | 0.00 | 0.00 | 0.00 | 38 | |
| 20260505194017 | 80 | 300 | 5.2 | 16.5 | 0.00 | 0.00 | 0.00 | 36 | |
| 20260505193537 | 80 | 99 | 2.6 | 4.3 | 0.00 | 0.00 | 0.00 | 38 | |
| 20260505193017 | 80 | 294 | 1.7 | 4.3 | 0.00 | 0.00 | 0.00 | 38 | |
| 20260505192536 | 80 | 241 | 1.7 | 3.5 | 0.00 | 0.00 | 0.00 | 38 | |
| 20260505192037 | 80 | 311 | 2.6 | 5.2 | 0.00 | 0.00 | 0.00 | 37 | |
| 20260505191517 | 80 | 298 | 2.6 | 4.3 | 0.00 | 0.00 | 0.00 | 39 | |
| 20260505191038 | 79 | 312 | 3.5 | 5.2 | 0.00 | 0.00 | 0.00 | 40 | |
| 20260505190537 | 79 | 312 | 4.3 | 7.0 | 0.00 | 0.00 | 0.00 | 40 | |
| 20260505190017 | 80 | 288 | 4.3 | 7.8 | 0.00 | 0.00 | 0.00 | 38 | |
| 20260505185515 | 80 | 247 | 2.6 | 5.2 | 0.00 | 0.00 | 0.00 | 39 | |
| 20260505185016 | 80 | 320 | 4.3 | 7.0 | 0.00 | 0.00 | 0.00 | 41 | |
| 20260505184536 | 80 | 77 | 2.6 | 4.3 | 0.00 | 0.00 | 0.00 | 39 | |
| 20260505184016 | 80 | 314 | 3.5 | 5.2 | 0.00 | 0.00 | 0.00 | 38 | |
| 20260505183516 | 79 | 317 | 1.7 | 6.1 | 0.00 | 0.00 | 0.00 | 38 | |
| 20260505183016 | 79 | 301 | 4.3 | 7.8 | 0.00 | 0.00 | 0.00 | 40 | |
| 20260505182537 | 79 | 293 | 2.6 | 6.1 | 0.00 | 0.00 | 0.00 | 41 | |
| 20260505182016 | 79 | 288 | 3.5 | 5.2 | 0.00 | 0.00 | 0.00 | 40 | |
| 20260505181516 | 79 | 290 | 6.1 | 11.3 | 0.00 | 0.00 | 0.00 | 40 | |
| 20260505181015 | 79 | 327 | 2.6 | 6.1 | 0.00 | 0.00 | 0.00 | 41 | |
| 20260505180515 | 79 | 6 | 3.5 | 6.1 | 0.00 | 0.00 | 0.00 | 42 | |
| 20260505180015 | 79 | 310 | 4.3 | 7.8 | 0.00 | 0.00 | 0.00 | 42 | |
| 20260505175515 | 79 | 310 | 4.3 | 7.8 | 0.00 | 0.00 | 0.00 | 40 | |
| 20260505175016 | 79 | 325 | 2.6 | 4.3 | 0.00 | 0.00 | 0.00 | 41 | |
| 20260505174516 | 79 | 13 | 3.5 | 6.1 | 0.00 | 0.00 | 0.00 | 40 | |
| 20260505174016 | 78 | 306 | 5.2 | 7.0 | 0.00 | 0.00 | 0.00 | 42 | |
| 20260505173516 | 78 | 273 | 3.5 | 7.8 | 0.00 | 0.00 | 0.00 | 42 | |
| 20260505173016 | 78 | 301 | 5.2 | 7.0 | 0.00 | 0.00 | 0.00 | 42 | |
| 20260505172516 | 78 | 282 | 3.5 | 7.0 | 0.00 | 0.00 | 0.00 | 40 | |
| 20260505172036 | 78 | 297 | 3.5 | 6.1 | 0.00 | 0.00 | 0.00 | 40 | |
| 20260505171516 | 77 | 287 | 4.3 | 7.0 | 0.00 | 0.00 | 0.00 | 40 | |
| 20260505171016 | 77 | 285 | 4.3 | 6.1 | 0.00 | 0.00 | 0.00 | 41 | |
| 20260505170516 | 78 | 299 | 5.2 | 7.0 | 0.00 | 0.00 | 0.00 | 40 | |
| 20260505170016 | 78 | 293 | 4.3 | 6.1 | 0.00 | 0.00 | 0.00 | 41 | |
| 20260505165536 | 79 | 298 | 3.5 | 5.2 | 0.00 | 0.00 | 0.00 | 41 | |
| 20260505165016 | 78 | 195 | 2.6 | 6.1 | 0.00 | 0.00 | 0.00 | 42 | |
| 20260505164516 | 77 | 314 | 3.5 | 4.3 | 0.00 | 0.00 | 0.00 | 44 | |
| 20260505164017 | 77 | 310 | 2.6 | 4.3 | 0.00 | 0.00 | 0.00 | 44 | |
| 20260505163537 | 78 | 298 | 4.3 | 7.0 | 0.00 | 0.00 | 0.00 | 43 | |
| 20260505163017 | 78 | 305 | 2.6 | 5.2 | 0.00 | 0.00 | 0.00 | 43 | |
| 20260505162516 | 77 | 334 | 2.6 | 5.2 | 0.00 | 0.00 | 0.00 | 43 | |
| 20260505162017 | 77 | 238 | 1.7 | 3.5 | 0.00 | 0.00 | 0.00 | 44 | |
| 20260505161517 | 78 | 282 | 4.3 | 7.8 | 0.00 | 0.00 | 0.00 | 43 | |
| 20260505161017 | 78 | 4 | 2.6 | 4.3 | 0.00 | 0.00 | 0.00 | 42 | |
| 20260505160537 | 77 | 196 | 3.5 | 6.1 | 0.00 | 0.00 | 0.00 | 43 | |
| 20260505153018 | 75 | 295 | 1.7 | 5.2 | 0.00 | 0.00 | 0.00 | 46 | |
| 20260505152518 | 75 | 306 | 2.6 | 3.5 | 0.00 | 0.00 | 0.00 | 50 | |
| 20260505152018 | 76 | 276 | 1.7 | 3.5 | 0.00 | 0.00 | 0.00 | 49 | |
| 20260505151517 | 74 | 187 | 0.9 | 2.6 | 0.00 | 0.00 | 0.00 | 49 | |
| 20260505151015 | 74 | 311 | 0.9 | 2.6 | 0.00 | 0.00 | 0.00 | 49 | |
| 20260505150535 | 74 | 265 | 1.7 | 4.3 | 0.00 | 0.00 | 0.00 | 47 | |
| 20260505140516 | 73 | 246 | 0.9 | 2.6 | 0.00 | 0.00 | 0.00 | 54 | |
| 20260505125017 | 61 | 0.0 | 0.0 | 0.00 | 0.00 | 0.00 | 75 | ||
| 20260505124517 | 60 | 0.0 | 0.0 | 0.00 | 0.00 | 0.00 | 78 | ||
| 20260505124017 | 59 | 0.0 | 0.0 | 0.00 | 0.00 | 0.00 | 78 | ||
| 20260505123517 | 58 | 0.0 | 0.0 | 0.00 | 0.00 | 0.00 | 80 | ||
| 20260505123018 | 58 | 0.0 | 0.0 | 0.00 | 0.00 | 0.00 | 81 | ||
| 20260505122518 | 58 | 0.0 | 0.0 | 0.00 | 0.00 | 0.00 | 80 | ||
| 20260505122038 | 58 | 311 | 0.0 | 0.9 | 0.00 | 0.00 | 0.00 | 78 | |
| 20260505121518 | 57 | 0.0 | 0.0 | 0.00 | 0.00 | 0.00 | 79 | ||
| 20260505121018 | 57 | 0.0 | 0.0 | 0.00 | 0.00 | 0.00 | 80 | ||
| 20260505120518 | 56 | 0.0 | 0.0 | 0.00 | 0.00 | 0.00 | 81 | ||
| 20260505120018 | 55 | 0.0 | 0.0 | 0.00 | 0.00 | 0.00 | 82 | ||
| 20260505115518 | 55 | 63 | 0.0 | 0.9 | 0.00 | 0.00 | 0.00 | 82 | |
| 20260505115018 | 53 | 0.0 | 0.0 | 0.00 | 0.00 | 0.00 | 85 | ||
| 20260505114535 | 52 | 0.0 | 0.0 | 0.00 | 0.00 | 0.00 | 86 | ||
| 20260505114015 | 51 | 0.0 | 0.0 | 0.00 | 0.00 | 0.00 | 88 | ||
| 20260505113515 | 50 | 320 | 0.0 | 0.9 | 0.00 | 0.00 | 0.00 | 92 | |
| 20260505113015 | 49 | 0.0 | 0.0 | 0.00 | 0.00 | 0.00 | 95 | ||
| 20260505112544 | 48 | 0.0 | 0.0 | 0.00 | 0.00 | 0.00 | 97 | ||
| 20260505112023 | 48 | 0.0 | 0.0 | 0.00 | 0.00 | 0.00 | 97 | ||
| 20260505111523 | 47 | 0.0 | 0.0 | 0.00 | 0.00 | 0.00 | 97 | ||
| 20260505111016 | 47 | 0.0 | 0.0 | 0.00 | 0.00 | 0.00 | 97 | ||
| 20260505110516 | 47 | 0.0 | 0.0 | 0.00 | 0.00 | 0.00 | 97 | ||
| 20260505102016 | 47 | 0.0 | 0.0 | 0.00 | 0.00 | 0.00 | 97 | ||
| 20260505101537 | 47 | 0.0 | 0.0 | 0.00 | 0.00 | 0.00 | 96 | ||
| 20260505101017 | 47 | 26 | 0.0 | 0.0 | 0.00 | 0.00 | 0.00 | 97 | |
| 20260505100517 | 47 | 0.0 | 0.0 | 0.00 | 0.00 | 0.00 | 96 | ||
| 20260505100017 | 48 | 0.0 | 0.0 | 0.00 | 0.00 | 0.00 | 97 | ||
| 20260505095517 | 48 | 297 | 0.0 | 0.9 | 0.00 | 0.00 | 0.00 | 96 | |
| 20260505095037 | 48 | 286 | 0.0 | 0.0 | 0.00 | 0.00 | 0.00 | 96 | |
| 20260505094517 | 48 | 0.0 | 0.0 | 0.00 | 0.00 | 0.00 | 96 | ||
| 20260505094018 | 48 | 311 | 0.0 | 0.9 | 0.00 | 0.00 | 0.00 | 95 | |
| 20260505093517 | 48 | 333 | 0.0 | 0.9 | 0.00 | 0.00 | 0.00 | 95 | |
| 20260505093017 | 48 | 315 | 0.0 | 0.9 | 0.00 | 0.00 | 0.00 | 95 | |
| 20260505092518 | 48 | 0.0 | 0.0 | 0.00 | 0.00 | 0.00 | 95 | ||
| 20260505092018 | 48 | 285 | 0.9 | 0.9 | 0.00 | 0.00 | 0.00 | 95 | |
| 20260505091517 | 48 | 339 | 0.0 | 0.9 | 0.00 | 0.00 | 0.00 | 95 | |
| 20260505091018 | 48 | 0.0 | 0.0 | 0.00 | 0.00 | 0.00 | 94 | ||
| 20260505090518 | 49 | 318 | 0.0 | 0.9 | 0.00 | 0.00 | 0.00 | 94 | |
| 20260505090018 | 49 | 312 | 0.0 | 0.9 | 0.00 | 0.00 | 0.00 | 94 | |
| 20260505085518 | 49 | 0.0 | 0.0 | 0.00 | 0.00 | 0.00 | 93 | ||
| 20260505085035 | 49 | 313 | 0.0 | 0.9 | 0.00 | 0.00 | 0.00 | 93 | |
| 20260505084515 | 49 | 0.0 | 0.0 | 0.00 | 0.00 | 0.00 | 93 | ||
| 20260505084015 | 49 | 0.0 | 0.0 | 0.00 | 0.00 | 0.00 | 92 | ||
| 20260505083515 | 49 | 316 | 0.0 | 0.9 | 0.00 | 0.00 | 0.00 | 92 | |
| 20260505083015 | 50 | 0.0 | 0.0 | 0.00 | 0.00 | 0.00 | 91 | ||
| 20260505082516 | 50 | 304 | 0.9 | 1.7 | 0.00 | 0.00 | 0.00 | 92 | |
| 20260505082016 | 50 | 0.0 | 0.0 | 0.00 | 0.00 | 0.00 | 92 | ||
| 20260505081516 | 50 | 329 | 0.0 | 0.9 | 0.00 | 0.00 | 0.00 | 92 | |
| 20260505081036 | 50 | 0.0 | 0.0 | 0.00 | 0.00 | 0.00 | 92 |